EW0844 Weather Reports


time (UTC)temp
C
wind
direction
speed
KPH
gust
KPH
rain 1hr
cm
rain 24hr
cm
rain mn
cm
humidity
%
barometer
mb
20190424081917 22 173 0.0 0.0 0.00 0.00 0.00 34 1004.0
20190424071918 20 123 0.0 0.0 0.00 0.00 0.00 41 1003.6
20190424061919 13 124 0.0 0.0 0.00 0.00 0.00 58 1003.5
20190424060419 13 124 0.0 0.0 0.00 0.00 0.00 60 1003.3
20190424053418 11 121 0.0 3.2 0.00 0.00 0.00 67 1003.4
20190424051917 10 121 0.0 0.0 0.00 0.00 0.00 68 1003.1
20190424044918 8 123 0.0 6.4 0.00 0.00 0.00 71 1002.5
20190424043417 8 123 0.0 0.0 0.00 0.00 0.00 71 1002.6
20190424040418 9 122 0.0 0.0 0.00 0.00 0.00 69 1002.4
20190424034918 9 122 0.0 0.0 0.00 0.00 0.00 69 1002.3
20190424031918 9 122 0.0 0.0 0.00 0.00 0.00 67 1002.1
20190424024918 10 122 0.0 0.0 0.00 0.00 0.00 64 1002.0
20190424023418 10 122 0.0 0.0 0.00 0.00 0.00 62 1001.9
20190424021919 11 122 0.0 0.0 0.00 0.00 0.00 60 1001.9
20190424011917 12 122 0.0 0.0 0.00 0.00 0.00 58 1001.6
20190424004917 12 114 0.0 1.6 0.00 0.00 0.00 57 1001.5
20190424003417 12 116 0.0 0.0 0.00 0.00 0.00 57 1001.6
20190424001919 12 129 0.0 1.6 0.00 0.00 0.00 57 1001.7
20190423233417 12 121 0.0 0.0 0.00 0.00 0.00 55 1001.6
20190423231917 12 121 0.0 0.0 0.00 0.00 0.00 54 1001.7
20190423230417 12 128 0.0 0.0 0.00 0.00 0.00 54 1001.6
20190423213417 12 113 0.0 0.0 0.00 0.00 0.00 54 1001.4
20190423210417 12 121 0.0 0.0 0.00 0.00 0.00 55 1001.0
20190423201918 13 106 0.0 0.0 0.00 0.00 0.00 55 1000.8
20190423200418 13 94 0.0 0.0 0.00 0.00 0.00 53 1000.8
20190423194918 14 107 0.0 0.0 0.00 0.00 0.00 54 1000.8
20190423183417 15 78 0.0 4.8 0.00 0.00 0.00 52 999.9
20190423181917 16 88 1.6 4.8 0.00 0.00 0.00 52 999.9
20190423180417 16 70 0.0 6.4 0.00 0.00 0.00 51 999.8
20190423174917 17 94 0.0 1.6 0.00 0.00 0.00 51 999.7
20190423173418 17 82 0.0 3.2 0.00 0.00 0.00 50 999.6
20190423171919 17 81 0.0 3.2 0.00 0.00 0.00 49 999.5
20190423170417 17 103 0.0 9.7 0.00 0.00 0.00 48 999.4
20190423163417 18 84 1.6 8.0 0.00 0.00 0.00 48 999.4
20190423154917 18 94 1.6 12.9 0.00 0.00 0.00 45 999.5
20190423144918 18 108 0.0 6.4 0.00 0.00 0.00 43 999.3
20190423143417 18 47 1.6 9.7 0.00 0.00 0.00 43 999.1
20190423140417 18 81 0.0 8.0 0.00 0.00 0.00 42 999.3
20190423123417 18 72 0.0 6.4 0.00 0.00 0.00 43 999.4
20190423114918 18 75 8.0 14.5 0.00 0.00 0.00 43 999.4
20190423113418 18 81 6.4 11.3 0.00 0.00 0.00 42 999.2
20190423110418 19 73 1.6 9.7 0.00 0.00 0.00 41 999.1
20190423104917 20 90 3.2 12.9 0.00 0.00 0.00 41 999.0
20190423103419 19 103 1.6 11.3 0.00 0.00 0.00 40 999.1
20190423100417 18 86 6.4 20.9 0.00 0.00 0.00 50 999.3
20190423093418 16 104 0.0 8.0 0.00 0.00 0.00 54 999.4
20190423091917 15 70 6.4 11.3 0.00 0.00 0.00 56 999.6
20190423090417 15 75 1.6 11.3 0.00 0.00 0.00 58 999.6
20190423083418 13 63 6.4 11.3 0.00 0.00 0.00 61 999.8